This is the latest recevied weather packets stored in our database for station/object W2OBX. If no packets are shown the sender has not sent any weather packets the latest 10 day(s).
| Time | Temp. | Humidity | Pressure | Rain* | Wind** | Luminosity | Snow |
|---|---|---|---|---|---|---|---|
| 1777413624 | 23.33° C | 77% | 1016.1 hPa | 0 mm | - | 58 W/m² | - |
| 1777413321 | 22.78° C | 76% | 1015.9 hPa | 0 mm | - | 53 W/m² | - |
| 1777413016 | 22.78° C | 74% | 1015.8 hPa | 0 mm | - | 62 W/m² | - |
| 1777412715 | 23.33° C | 74% | 1016.1 hPa | 0 mm | - | 46 W/m² | - |
| 1777412414 | 23.33° C | 74% | 1016.4 hPa | 0 mm | - | 58 W/m² | - |
| 1777412108 | 23.33° C | 76% | 1016.4 hPa | 0 mm | - | 44 W/m² | - |
| 1777411804 | 23.33° C | 74% | 1016.5 hPa | 0 mm | - | 54 W/m² | - |
| 1777411503 | 23.33° C | 75% | 1016.4 hPa | 0 mm | - | 62 W/m² | - |
| 1777411201 | 23.33° C | 74% | 1016.7 hPa | 0 mm | - | 47 W/m² | - |
| 1777410897 | 23.33° C | 73% | 1017 hPa | 0 mm | - | 85 W/m² | - |
| 1777410590 | 23.33° C | 75% | 1017.1 hPa | 0 mm | - | 59 W/m² | - |
| 1777410285 | 23.33° C | 73% | 1017.2 hPa | 0 mm | - | 106 W/m² | - |
| 1777409980 | 23.33° C | 75% | 1017.1 hPa | 0 mm | - | 234 W/m² | - |
| 1777409675 | 22.78° C | 74% | 1017.4 hPa | 0 mm | - | 108 W/m² | - |
| 1777409372 | 22.78° C | 78% | 1017.5 hPa | 0 mm | - | 256 W/m² | - |
| 1777409067 | 22.22° C | 81% | 1017.4 hPa | 0 mm | - | 112 W/m² | - |
| 1777408764 | 21.67° C | 79% | 1017.4 hPa | 0 mm | - | 181 W/m² | - |
| 1777408460 | 21.67° C | 79% | 1017.7 hPa | 0 mm | - | 94 W/m² | - |
| 1777408155 | 21.67° C | 79% | 1018 hPa | 0 mm | - | 77 W/m² | - |
| 1777407850 | 21.67° C | 80% | 1018.1 hPa | 0 mm | - | 89 W/m² | - |
| 1777407547 | 21.67° C | 79% | 1018.3 hPa | 0 mm | - | 91 W/m² | - |
| 1777407241 | 21.11° C | 79% | 1018.1 hPa | 0 mm | - | 52 W/m² | - |
| 1777406936 | 21.67° C | 78% | 1018.5 hPa | 0 mm | - | 55 W/m² | - |
| 1777406630 | 21.67° C | 78% | 1018.4 hPa | 0 mm | - | 54 W/m² | - |
| 1777406327 | 21.67° C | 77% | 1018.6 hPa | 0 mm | - | 48 W/m² | - |
* Rain latest hour (hover to see other rain measurements)
** Current wind speed in m/s (hover to see current wind gust speed)